Location: Unspecified
(43.4354°N, 0.0000°E)
Time: 03:18:35
(UTC+00:00)

A-11 Canister half - Pass Details

Date: 22 June 2019
Orbit: 1514 x 1686 km, 47.2° (Epoch: 12 October)

Event Time Altitude Azimuth Distance (km) Brightness Sun altitude
Rises 11:27:04 0° 246° (WSW) 4,902 11.7 68.7°
Reaches altitude 10° 11:30:14 10° 247° (WSW) 3,899 11.3 69.0°
Maximum altitude 11:40:15 89° 339° (NNW) 1,620 10.8 69.5°
Drops below altitude 10° 11:49:55 10° 70° (ENE) 3,771 11.1 69.8°
Sets 11:52:56 0° 70° (ENE) 4,735 11.5 69.9°
